{"data":{"norad_id":43587,"epoch":"2026-09-19T02:05:08.401056Z","epoch_age_seconds":143972,"freshness":"FRESH","line1":"1 43587U 18064A   26262.08690279 -.00000348  00000+0  00000+0 0  9999","line2":"2 43587   0.0179 155.3074 0001249  16.5574 325.4298  1.00273004 29826","mean_motion":1.00273004,"eccentricity":0.0001249,"inclination_deg":0.0179,"raan_deg":155.3074,"arg_perigee_deg":16.5574,"mean_anomaly_deg":325.4298,"bstar":0,"rev_number":2982,"period_min":1436.0794456701,"perigee_km":35780.986902361,"apogee_km":35791.519567042,"semimajor_km":42164.390234702,"source":"CELESTRAK","updated_at":"2026-09-20T09:00:35.261875Z"}}